RH
17 21 24 25 26 30 41 60 73 86 91 87 92 99 85 97 90 90 91 93 89 90 95 98 97 95 95 95 99 97 98 100 99 80 87 77 79 82 84 85 86 75 79
29 27 26 25 24 26 30 29 33 38 50 73 89 87 94 77 92 100 100 95 89 93 96 99 94 91 86 88 94 98 100 100 100 96 80 80 86 86 77 74 73 81 92
37 37 40 43 44 35 28 31 32 35 39 44 49 60 67 75 87 88 93 98 99 93 93 93 94 100 98 97 98 99 100 100 98 92 83 83 85 65 70 79 89 92 94
36 37 40 42 44 44 40 35 32 34 35 36 38 41 45 50 60 69 74 77 78 76 79 80 81 90 84 91 96 92 93 94 84 81 71 64 64 69 77 73 81 87 92
54 50 45 42 42 42 46 47 45 40 35 35 37 40 44 45 45 48 51 54 57 62 65 57 58 64 68 71 80 70 74 79 73 66 64 65 65 64 70 77 84 86 89
56 53 56 57 58 59 60 58 55 55 54 50 45 39 37 38 39 41 44 46 49 50 51 53 54 56 56 57 59 60 66 66 68 68 62 63 65 70 77 86 89 93 93
56 55 54 55 54 52 52 51 50 54 58 55 57 60 59 57 52 48 45 46 46 47 48 49 50 52 53 53 54 56 60 65 64 65 68 74 82 90 87 98 97 95 78
59 58 58 56 53 52 52 54 50 51 53 54 55 55 59 56 65 66 65 62 62 64 64 64 64 65 64 66 65 67 68 71 74 78 87 88 91 98 100 98 99 99 100
48 52 54 56 58 59 59 58 58 56 56 59 61 62 68 57 60 59 62 68 68 60 63 66 63 58 56 62 70 71 74 81 80 92 100 99 99 100 100 100 99 100 98
57 52 51 51 52 54 56 57 59 62 58 59 63 62 62 66 69 73 69 71 70 67 63 68 67 52 53 54 67 60 74 85 96 96 91 99 100 100 99 99 100 100 99
58 59 58 58 60 55 53 52 56 60 62 63 66 68 80 82 87 80 72 70 84 99 100 96 93 77 65 62 74 98 100 100 100 100 100 98 99 99 99 99 98 99 98
44 42 47 54 57 58 59 58 57 56 57 65 71 74 75 73 76 75 76 79 97 97 100 97 92 95 100 100 100 100 100 100 100 100 100 99 99 98 98 98 98 98 96
29 30 30 35 40 41 41 43 48 63 67 69 74 78 89 98 81 83 99 96 81 93 98 100 98 100 99 100 100 100 100 100 98 97 97 98 97 98 95 97 96 96 95
29 28 27 27 29 32 42 48 48 52 47 51 69 95 100 100 98 99 100 99 95 99 98 99 100 100 100 100 99 98 98 98 96 96 96 96 96 95 95 95 96 97 95
34 35 35 36 37 37 40 53 69 70 58 56 55 66 66 80 85 85 95 96 98 96 90 84 92 96 95 95 95 96 96 95 96 94 94 96 95 94 95 95 95 94 87
32 35 37 43 47 45 51 70 80 75 63 57 61 64 67 76 85 90 88 88 89 94 88 90 94 91 90 92 94 95 95 95 99 96 92 95 96 96 92 87 67 31 6
40 40 40 46 58 71 77 80 80 76 73 76 91 97 96 92 89 87 90 95 96 96 97 97 98 95 96 96 96 95 94 96 98 96 94 95 95 75 39 12 5 4 4
47 51 57 67 76 80 84 88 92 93 94 98 98 99 97 96 95 96 96 95 96 96 96 95 97 96 95 95 95 95 96 95 95 86 49 13 5 5 4 5 6 6 6
70 76 80 82 83 85 87 90 95 97 98 98 97 97 97 96 96 96 96 96 96 96 96 95 95 94 95 94 93 73 48 24 8 5 5 5 6 6 6 7 7 7 7
83 83 84 87 89 90 91 90 93 95 96 97 96 94 95 96 96 96 96 96 96 96 93 78 44 17 7 5 5 5 5 6 6 6 7 8 8 8 8 8 8 9 10
89 89 90 91 92 92 93 93 94 96 97 96 96 96 95 90 78 47 30 14 7 6 6 6 5 5 5 6 6 6 6 7 7 9 9 9 9 9 9 9 10 11 13
94 96 95 96 94 94 91 86 79 62 49 36 27 20 14 8 6 6 5 5 6 6 7 7 7 8 8 8 8 8 9 10 10 10 10 10 10 10 11 13 15 15 16
94 86 70 50 35 24 17 14 13 10 7 6 6 6 5 6 6 6 6 7 8 8 8 9 9 9 10 10 10 11 11 11 11 11 11 10 11 13 15 16 16 17 17
20 12 10 9 8 7 7 7 6 6 6 6 7 7 8 8 8 8 9 9 10 11 11 11 12 12 12 12 12 12 12 12 12 12 12 12 14 16 17 16 16 19 26
10 9 9 8 8 7 7 7 7 8 8 8 9 10 10 11 12 12 12 12 13 14 14 14 15 15 14 14 14 14 14 14 14 13 14 16 18 18 18 19 22 29 40
10 9 9 8 9 9 9 10 10 10 10 10 11 11 11 11 12 12 13 13 14 14 15 15 15 16 17 18 18 18 18 17 16 16 17 19 20 20 23 26 33 47 50
Wind_Speed
4 4 4 6 7 6 7 11 13 15 16 14 24 28 29 29 22 28 32 40 48 48 50 51 50 47 44 44 44 37 40 44 49 46 46 42 40 39 41 42 44 46 47
5 5 3 3 4 6 7 8 10 10 12 14 20 22 26 25 27 32 36 33 34 39 42 48 45 45 44 43 45 47 48 44 51 52 46 43 43 42 43 48 51 49 52
8 8 6 5 4 4 5 7 7 8 10 13 16 19 21 22 25 30 32 35 39 39 40 40 41 47 45 47 51 53 49 51 53 54 50 46 46 45 44 46 46 48 43
14 13 12 11 10 10 10 10 11 13 13 13 14 16 17 19 23 26 29 30 32 34 38 40 39 43 41 43 46 46 46 49 48 50 49 47 46 50 49 47 50 48 49
11 17 17 17 17 18 17 17 17 19 19 19 20 21 21 22 23 24 25 28 31 34 35 34 34 36 37 37 42 40 42 46 46 48 51 51 52 53 53 49 54 49 54
10 12 14 15 16 18 20 23 24 24 25 25 26 27 27 26 27 28 30 32 33 34 35 37 37 38 39 40 42 43 45 48 50 53 54 56 57 56 57 53 52 55 53
19 19 18 17 17 16 17 17 19 22 27 29 30 32 32 31 32 32 34 37 39 40 40 41 42 42 43 45 46 47 49 52 55 56 59 58 58 56 54 62 56 53 52
17 19 22 24 25 25 25 23 24 24 22 22 26 31 33 34 36 38 40 42 43 44 45 46 47 46 47 47 48 50 52 56 58 58 58 58 57 58 62 65 65 64 75
24 26 29 27 28 29 29 30 30 31 30 27 26 27 27 29 34 37 39 43 46 46 46 49 51 51 50 51 52 52 54 56 58 59 59 60 65 70 69 60 71 64 68
17 20 23 25 26 28 27 26 28 29 34 33 31 34 43 40 35 34 34 36 40 44 48 50 53 57 57 56 56 56 58 59 62 64 67 71 69 69 63 65 75 69 61
23 25 29 31 30 32 35 35 34 35 38 40 40 37 39 40 38 46 49 51 50 43 47 47 51 56 57 57 58 58 59 62 65 70 73 76 75 75 74 59 57 56 52
14 17 21 25 30 33 31 33 37 42 44 43 43 43 45 47 51 47 47 53 48 50 52 57 58 56 59 59 60 60 60 67 69 70 78 61 58 48 46 44 38 32 28
18 19 19 19 20 19 21 25 29 33 34 36 41 45 45 47 50 50 54 53 52 54 58 54 63 61 64 64 64 66 70 66 56 44 39 40 41 37 28 22 22 23 26
19 20 21 23 25 26 28 28 29 28 27 29 32 35 34 39 43 48 51 50 50 55 57 53 57 58 59 61 55 44 37 33 29 23 19 16 16 18 22 25 27 29 32
24 25 26 27 29 30 32 33 32 32 31 29 29 30 31 37 40 45 52 48 52 42 35 34 35 37 32 24 18 16 15 15 15 15 18 21 23 25 26 28 30 32 34
27 28 29 29 29 31 31 30 30 30 29 28 27 27 28 29 30 31 30 29 26 22 20 17 16 15 14 13 12 13 14 17 19 20 23 27 27 28 31 31 32 33 34
26 28 30 30 31 30 28 27 27 28 28 28 28 28 27 27 23 22 20 18 15 12 11 11 11 11 12 13 15 18 20 23 22 23 26 28 29 29 29 31 32 33 34
24 24 25 25 26 27 28 28 28 26 24 22 21 19 17 14 14 13 12 12 12 13 13 14 15 17 19 21 22 22 24 27 29 28 27 27 28 27 28 29 30 31 32
21 20 21 22 23 23 23 21 20 19 17 16 15 14 12 12 11 12 13 14 15 16 18 19 20 21 22 24 26 26 25 24 24 24 25 26 27 28 28 28 29 29 29
22 21 20 19 18 18 18 18 17 16 15 15 15 14 14 14 14 15 15 16 18 20 23 24 23 23 23 22 21 22 23 23 23 24 24 25 25 25 25 25 25 26 27
17 17 17 16 15 15 15 14 14 14 14 15 16 17 19 21 21 21 21 21 21 22 22 22 22 22 22 22 23 23 23 24 24 24 24 24 24 24 25 24 24 25 25
13 12 13 14 14 15 16 17 17 18 19 20 21 21 22 22 23 23 22 21 20 19 19 19 20 20 20 20 21 22 22 22 23 23 23 23 22 22 23 22 22 23 22
14 14 14 15 16 17 19 20 21 22 23 23 22 22 21 21 22 22 22 21 20 21 21 21 21 21 21 22 22 22 22 22 22 22 22 22 22 22 21 21 21 21 21
17 18 18 19 19 19 20 20 21 21 21 21 21 21 20 21 21 20 20 21 21 21 22 22 22 22 23 23 23 23 23 23 23 22 22 22 21 20 20 20 20 19 18
19 19 19 20 20 20 21 21 20 20 20 20 19 19 19 19 21 22 21 22 22 23 23 23 24 24 24 24 24 24 24 23 23 22 21 20 20 19 19 18 18 17 17
19 19 19 19 19 19 18 19 20 20 21 20 21 21 22 22 23 24 24 25 25 25 25 25 26 25 25 24 24 24 23 23 22 21 20 19 19 18 17 16 16 15 15
Wind_Direction
182 167 140 126 129 160 184 200 210 215 215 210 211 221 212 219 223 235 243 242 237 238 242 244 251 259 261 266 267 275 277 278 277 275 276 274 272 273 273 275 277 280 286
205 192 176 161 143 145 164 174 192 201 211 214 221 222 226 222 224 241 246 245 250 252 257 251 258 259 260 264 269 271 272 272 277 275 273 273 274 276 278 278 281 283 283
217 219 209 203 212 207 195 194 208 215 219 219 223 229 232 236 239 239 239 245 249 249 251 254 257 261 261 262 264 265 267 271 271 273 272 271 273 273 271 286 285 279 281
231 234 238 243 244 245 246 242 235 235 236 238 238 240 242 245 245 246 249 251 252 255 255 254 256 257 258 258 259 262 267 270 270 271 272 273 276 276 278 281 286 283 290
211 236 241 244 249 253 255 255 252 253 250 247 248 248 246 248 251 252 254 255 256 257 258 258 257 258 261 263 264 266 268 270 271 272 273 274 274 275 276 281 277 286 282
235 213 225 235 246 253 254 256 258 260 261 260 260 258 257 255 256 258 260 260 259 258 259 260 261 261 260 261 263 265 267 269 269 270 272 273 274 277 281 280 283 284 283
249 260 261 255 248 248 255 260 261 262 260 259 260 260 260 261 261 260 258 260 261 261 259 259 259 258 258 259 259 262 263 265 267 269 271 273 278 280 281 286 281 280 277
264 266 263 264 266 268 269 272 266 264 270 273 274 268 263 259 259 258 259 261 260 261 262 262 261 259 259 260 261 262 263 264 265 267 271 274 274 280 279 277 281 276 280
267 267 267 264 263 264 267 268 272 273 273 277 281 281 281 272 268 264 263 265 265 264 267 268 266 264 260 260 263 264 266 269 270 272 273 273 274 275 275 274 274 276 274
257 263 272 272 275 271 267 266 265 268 269 271 276 275 276 276 274 275 270 275 277 278 275 271 270 271 271 269 268 267 269 271 273 274 273 271 270 268 269 266 264 269 270
264 264 261 268 275 274 269 267 268 271 276 277 278 274 270 273 274 269 271 266 273 279 281 282 277 272 271 270 269 267 266 268 268 270 269 270 263 262 262 265 271 273 271
272 267 265 265 266 268 271 273 273 271 270 269 269 271 270 278 278 279 276 274 276 277 279 271 265 268 267 266 265 268 265 260 262 266 267 259 257 261 267 267 266 265 264
277 280 281 280 280 280 280 280 277 271 270 268 266 265 271 275 274 274 272 268 268 272 278 266 272 273 273 266 262 259 259 260 262 257 257 258 262 264 264 266 271 276 277
287 288 289 292 292 292 293 293 294 293 291 285 285 279 274 266 266 267 276 279 281 279 277 279 273 273 276 273 275 263 256 250 245 250 258 269 271 274 273 275 277 280 282
294 293 294 294 296 294 291 291 290 290 291 289 288 287 286 281 282 280 277 286 280 288 289 287 279 279 281 282 278 271 268 268 266 270 278 280 281 282 286 287 289 290 288
297 296 294 293 292 296 295 290 286 284 281 281 283 285 283 283 281 279 283 285 286 289 292 290 279 275 274 273 273 275 280 273 275 279 280 282 283 285 287 290 293 293 295
304 302 301 299 298 299 299 295 289 285 284 281 281 282 288 291 294 296 295 295 290 283 283 283 283 282 277 272 271 274 277 278 280 281 281 289 296 299 298 297 296 296 297
301 301 301 302 301 301 302 302 300 300 300 298 298 299 296 293 291 288 285 283 284 284 284 283 281 279 279 281 283 285 286 288 293 299 299 295 294 296 297 299 300 301 301
290 290 291 293 296 297 296 295 295 295 296 298 299 297 295 291 285 279 278 279 281 283 284 286 286 287 288 289 291 294 295 294 294 295 297 298 300 301 301 301 301 303 302
293 292 292 291 290 289 288 288 290 292 296 299 299 299 297 295 292 290 289 290 290 290 291 292 292 292 291 293 294 294 293 295 297 297 298 299 302 303 302 304 307 308 310
291 291 291 290 289 288 287 288 290 294 294 294 294 295 297 300 300 297 295 291 288 288 290 290 291 292 294 298 298 297 299 301 301 301 302 303 305 305 305 307 307 310 313
290 291 291 292 291 292 293 296 298 299 299 298 296 293 291 291 292 293 293 294 295 295 294 294 295 297 298 296 294 296 298 299 300 301 301 301 303 305 309 312 317 320 323
292 293 293 292 293 293 293 293 292 291 292 293 294 294 293 293 293 294 295 298 298 297 297 297 299 301 299 299 302 302 300 300 301 303 306 308 311 313 314 316 320 323 327
300 299 298 297 297 295 294 293 292 292 293 294 295 296 297 296 294 293 295 295 295 295 296 298 299 298 298 299 300 301 301 303 304 304 306 308 309 311 313 317 319 321 321
296 296 297 297 297 296 296 296 296 294 294 294 295 294 294 293 294 296 295 293 293 294 295 296 296 296 297 297 298 297 299 301 303 305 305 305 306 308 309 310 311 311 311
295 295 295 296 296 296 297 297 297 298 298 299 299 297 295 294 294 294 294 294 294 293 292 292 292 293 295 296 297 299 301 301 300 299 299 299 300 301 300 300 300 299 301